When you browse on this site, cookies collect data to enhance your experience and personalize the content and advertising you see.
Visit our Privacy Policy to learn more. By continuing to use the site, you agree to this use of cookies and data.
  • In Spain
  • List of Countries
  • For 7 days
  • Water Temperature
  • Weather Map
  • Weather Widgets
  • user-avatar
    Login

    Hourly Weather Sidi Bu-l-Abbas

    Today, 18 August, Sunday

    Time Temperature Precipitation Wind Pressure Humidity
    00:00 +30°C° 0 mm 1 mps 719 mmHg 35%
    01:00 +29°C° 0 mm 1 mps 719 mmHg 38%
    02:00 +29°C° 0 mm 1 mps 718 mmHg 42%
    03:00 +28°C° 0 mm 1 mps 718 mmHg 46%
    04:00 +28°C° 0 mm 1 mps 718 mmHg 45%
    05:00 +28°C° 0 mm 1 mps 718 mmHg 43%
    06:00 +28°C° 0 mm 1 mps 718 mmHg 42%
    07:00 +31°C° 0 mm 2 mps 719 mmHg 37%
    08:00 +34°C° 0 mm 2 mps 719 mmHg 31%
    09:00 +37°C° 0 mm 3 mps 720 mmHg 26%
    10:00 +37°C° 0 mm 4 mps 720 mmHg 26%
    11:00 +38°C° 0 mm 4 mps 720 mmHg 27%
    12:00 +39°C° 0 mm 5 mps 720 mmHg 27%
    13:00 +39°C° 0 mm 6 mps 719 mmHg 28%
    14:00 +39°C° 0 mm 6 mps 719 mmHg 29%
    15:00 +38°C° 0 mm 6 mps 719 mmHg 31%
    16:00 +36°C° 0 mm 5 mps 719 mmHg 33%
    17:00 +34°C° 0 mm 4 mps 719 mmHg 36%
    18:00 +33°C° 0 mm 3 mps 719 mmHg 39%
    19:00 +31°C° 0 mm 2 mps 719 mmHg 41%
    20:00 +30°C° 0 mm 2 mps 720 mmHg 43%
    21:00 +30°C° 0 mm 1 mps 720 mmHg 45%
    22:00 +29°C° 0 mm 1 mps 720 mmHg 45%
    23:00 +29°C° 0 mm 1 mps 719 mmHg 44%

    Tomorrow, 19 August, Monday

    Time Temperature Precipitation Wind Pressure Humidity
    00:00 +28°C° 0 mm 1 mps 719 mmHg 44%
    01:00 +27°C° 0 mm 1 mps 719 mmHg 45%
    02:00 +27°C° 0 mm 1 mps 719 mmHg 46%
    03:00 +26°C° 0 mm 1 mps 719 mmHg 47%
    04:00 +26°C° 0 mm 1 mps 719 mmHg 45%
    05:00 +26°C° 0 mm 1 mps 719 mmHg 44%
    06:00 +26°C° 0 mm 1 mps 719 mmHg 43%
    07:00 +29°C° 0 mm 1 mps 719 mmHg 36%
    08:00 +31°C° 0 mm 2 mps 720 mmHg 29%
    09:00 +34°C° 0 mm 3 mps 720 mmHg 22%
    10:00 +35°C° 0 mm 3 mps 720 mmHg 21%
    11:00 +36°C° 0 mm 4 mps 720 mmHg 19%
    12:00 +37°C° 0 mm 4 mps 721 mmHg 18%
    13:00 +37°C° 0 mm 5 mps 720 mmHg 19%
    14:00 +37°C° 0 mm 5 mps 720 mmHg 20%
    15:00 +37°C° 0 mm 5 mps 719 mmHg 22%
    16:00 +36°C° 0 mm 5 mps 719 mmHg 23%
    17:00 +35°C° 0 mm 4 mps 719 mmHg 25%
    18:00 +34°C° 0 mm 3 mps 719 mmHg 27%
    19:00 +32°C° 0 mm 2 mps 719 mmHg 32%
    20:00 +30°C° 0 mm 1 mps 720 mmHg 36%
    21:00 +29°C° 0 mm 1 mps 720 mmHg 41%
    22:00 +28°C° 0 mm 1 mps 720 mmHg 44%
    23:00 +28°C° 0 mm 1 mps 720 mmHg 46%

    Day after tomorrow, 20 August, Tuesday

    Time Temperature Precipitation Wind Pressure Humidity
    00:00 +27°C° 0 mm 2 mps 720 mmHg 49%
    01:00 +26°C° 0 mm 1 mps 719 mmHg 52%
    02:00 +25°C° 0 mm 1 mps 719 mmHg 56%
    03:00 +25°C° 0 mm 1 mps 719 mmHg 59%
    04:00 +25°C° 0 mm 1 mps 719 mmHg 58%
    05:00 +25°C° 0 mm 1 mps 719 mmHg 57%
    06:00 +24°C° 0 mm 1 mps 719 mmHg 56%
    07:00 +26°C° 0 mm 2 mps 720 mmHg 47%
    08:00 +28°C° 0 mm 3 mps 720 mmHg 37%
    09:00 +30°C° 0 mm 3 mps 721 mmHg 28%
    10:00 +31°C° 0 mm 3 mps 721 mmHg 26%
    11:00 +34°C° 0 mm 4 mps 721 mmHg 23%
    12:00 +35°C° 0 mm 4 mps 721 mmHg 21%
    13:00 +35°C° 0 mm 4 mps 721 mmHg 21%
    14:00 +35°C° 0 mm 4 mps 721 mmHg 21%
    15:00 +36°C° 0 mm 4 mps 720 mmHg 21%
    16:00 +34°C° 0 mm 4 mps 720 mmHg 25%
    17:00 +33°C° 0 mm 4 mps 720 mmHg 29%
    18:00 +32°C° 0 mm 4 mps 720 mmHg 33%
    19:00 +30°C° 0 mm 3 mps 720 mmHg 38%
    20:00 +28°C° 0 mm 2 mps 721 mmHg 43%
    21:00 +27°C° 0 mm 1 mps 721 mmHg 48%
    22:00 +27°C° 0 mm 1 mps 721 mmHg 52%
    23:00 +26°C° 0 mm 1 mps 721 mmHg 56%

    21 August, Wednesday

    Time Temperature Precipitation Wind Pressure Humidity
    00:00 +25°C° 0 mm 1 mps 721 mmHg 60%
    01:00 +25°C° 0 mm 1 mps 721 mmHg 65%
    02:00 +24°C° 0 mm 1 mps 721 mmHg 69%
    03:00 +23°C° 0 mm 1 mps 720 mmHg 74%
    04:00 +23°C° 0 mm 1 mps 720 mmHg 75%
    05:00 +23°C° 0 mm 1 mps 721 mmHg 76%
    06:00 +23°C° 0 mm 2 mps 721 mmHg 78%
    07:00 +25°C° 0 mm 2 mps 721 mmHg 67%
    08:00 +27°C° 0 mm 2 mps 721 mmHg 56%
    09:00 +29°C° 0 mm 2 mps 722 mmHg 45%
    10:00 +31°C° 0 mm 2 mps 721 mmHg 38%
    11:00 +34°C° 0 mm 3 mps 721 mmHg 31%
    12:00 +36°C° 0 mm 3 mps 721 mmHg 25%
    13:00 +36°C° 0 mm 4 mps 721 mmHg 27%
    14:00 +36°C° 0 mm 6 mps 721 mmHg 30%
    15:00 +36°C° 0 mm 7 mps 720 mmHg 32%
    16:00 +34°C° 0 mm 6 mps 720 mmHg 40%
    17:00 +32°C° 0 mm 6 mps 720 mmHg 48%
    18:00 +30°C° 0 mm 5 mps 720 mmHg 57%
    19:00 +28°C° 0 mm 4 mps 720 mmHg 63%
    20:00 +27°C° 0 mm 3 mps 720 mmHg 70%
    21:00 +26°C° 0 mm 2 mps 721 mmHg 77%
    22:00 +25°C° 0 mm 2 mps 721 mmHg 78%
    23:00 +25°C° 0 mm 2 mps 721 mmHg 79%

    22 August, Thursday

    Time Temperature Precipitation Wind Pressure Humidity
    00:00 +25°C° 0 mm 1 mps 721 mmHg 81%
    01:00 +24°C° 0 mm 2 mps 720 mmHg 83%
    02:00 +24°C° 0 mm 2 mps 720 mmHg 84%
    03:00 +24°C° 0 mm 2 mps 720 mmHg 86%
    04:00 +24°C° 0 mm 1 mps 720 mmHg 86%
    05:00 +24°C° 0 mm 1 mps 720 mmHg 86%
    06:00 +24°C° 0 mm 1 mps 720 mmHg 87%
    07:00 +25°C° 0 mm 1 mps 720 mmHg 79%
    08:00 +26°C° 0 mm 1 mps 721 mmHg 71%
    09:00 +28°C° 0 mm 1 mps 721 mmHg 63%
    10:00 +30°C° 0 mm 2 mps 721 mmHg 55%
    11:00 +32°C° 0 mm 2 mps 721 mmHg 46%
    12:00 +35°C° 0 mm 3 mps 721 mmHg 38%
    13:00 +35°C° 0 mm 4 mps 721 mmHg 38%
    14:00 +36°C° 0 mm 4 mps 720 mmHg 39%
    15:00 +36°C° 0 mm 5 mps 720 mmHg 39%
    16:00 +35°C° 0 mm 5 mps 720 mmHg 44%
    17:00 +33°C° 0 mm 4 mps 720 mmHg 49%
    18:00 +32°C° 0 mm 4 mps 719 mmHg 55%
    19:00 +30°C° 0 mm 3 mps 720 mmHg 60%
    20:00 +28°C° 0 mm 2 mps 720 mmHg 65%
    21:00 +27°C° 0 mm 2 mps 720 mmHg 70%
    22:00 +27°C° 0 mm 2 mps 720 mmHg 72%
    23:00 +26°C° 0 mm 1 mps 720 mmHg 74%

    23 August, Friday

    Time Temperature Precipitation Wind Pressure Humidity
    00:00 +26°C° 0 mm 1 mps 720 mmHg 76%
    01:00 +25°C° 0 mm 1 mps 720 mmHg 78%
    02:00 +25°C° 0 mm 1 mps 719 mmHg 79%
    03:00 +25°C° 0 mm 1 mps 719 mmHg 81%
    04:00 +24°C° 0 mm 1 mps 719 mmHg 82%
    05:00 +24°C° 0 mm 2 mps 720 mmHg 83%
    06:00 +24°C° 0 mm 2 mps 720 mmHg 84%
    07:00 +26°C° 0 mm 2 mps 720 mmHg 77%
    08:00 +27°C° 0 mm 2 mps 720 mmHg 69%
    09:00 +29°C° 0 mm 2 mps 721 mmHg 62%
    10:00 +30°C° 0 mm 3 mps 721 mmHg 55%
    11:00 +33°C° 0 mm 3 mps 721 mmHg 49%
    12:00 +35°C° 0 mm 4 mps 721 mmHg 42%
    13:00 +35°C° 0 mm 4 mps 720 mmHg 41%
    14:00 +35°C° 0 mm 5 mps 720 mmHg 41%
    15:00 +36°C° 0 mm 5 mps 720 mmHg 40%
    16:00 +34°C° 0 mm 5 mps 720 mmHg 44%
    17:00 +33°C° 0 mm 4 mps 719 mmHg 48%
    18:00 +32°C° 0 mm 4 mps 719 mmHg 51%
    19:00 +29°C° 0 mm 3 mps 719 mmHg 56%
    20:00 +28°C° 0 mm 2 mps 720 mmHg 61%
    21:00 +27°C° 0 mm 2 mps 720 mmHg 65%
    22:00 +26°C° 0 mm 1 mps 720 mmHg 67%
    23:00 +26°C° 0 mm 1 mps 720 mmHg 69%
    Show more